Wetterdaten: Sonntag, 18.10.2020
Datum Zeit Temp. Auen Feucht Auen Luftdruck Regen Richtung Richtung Windben
18.10.2020 00:00 6,1 C 90 % 1020,3 hPa 0,0 mm W 271 0,0 km/h (0 Bft)
18.10.2020 00:05 6,1 C 90 % 1020,3 hPa 0,0 mm W 271 0,0 km/h (0 Bft)
18.10.2020 00:10 6,1 C 90 % 1020,3 hPa 0,0 mm W 271 0,0 km/h (0 Bft)
18.10.2020 00:15 6,1 C 90 % 1020,3 hPa 0,0 mm W 271 0,0 km/h (0 Bft)
18.10.2020 00:20 6,1 C 90 % 1020,3 hPa 0,0 mm W 271 0,0 km/h (0 Bft)
18.10.2020 00:25 6,1 C 90 % 1020,4 hPa 0,0 mm W 271 0,0 km/h (0 Bft)
18.10.2020 00:30 6,1 C 91 % 1020,4 hPa 0,0 mm W 271 0,0 km/h (0 Bft)
18.10.2020 00:35 6,1 C 91 % 1020,4 hPa 0,0 mm W 271 0,0 km/h (0 Bft)
18.10.2020 00:40 6,1 C 91 % 1020,4 hPa 0,0 mm W 271 0,0 km/h (0 Bft)
18.10.2020 00:45 6,1 C 91 % 1020,4 hPa 0,0 mm W 271 0,0 km/h (0 Bft)
18.10.2020 00:50 6,0 C 91 % 1020,5 hPa 0,0 mm W 271 0,0 km/h (0 Bft)
18.10.2020 00:55 6,0 C 91 % 1020,6 hPa 0,0 mm W 271 0,0 km/h (0 Bft)
18.10.2020 01:00 5,9 C 91 % 1020,6 hPa 0,0 mm W 271 0,0 km/h (0 Bft)
18.10.2020 01:05 5,9 C 91 % 1020,6 hPa 0,0 mm W 271 0,0 km/h (0 Bft)
18.10.2020 01:10 5,9 C 91 % 1020,6 hPa 0,0 mm W 271 0,0 km/h (0 Bft)
18.10.2020 01:15 5,9 C 91 % 1020,6 hPa 0,0 mm W 271 0,0 km/h (0 Bft)
18.10.2020 01:20 5,9 C 91 % 1020,6 hPa 0,0 mm W 271 0,0 km/h (0 Bft)
18.10.2020 01:25 5,9 C 91 % 1020,6 hPa 0,0 mm W 271 3,2 km/h (1 Bft)
18.10.2020 01:30 5,9 C 91 % 1020,6 hPa 0,0 mm W 271 3,2 km/h (1 Bft)
18.10.2020 01:35 5,9 C 91 % 1020,6 hPa 0,0 mm W 271 3,2 km/h (1 Bft)
18.10.2020 01:40 5,9 C 91 % 1020,7 hPa 0,0 mm W 271 3,2 km/h (1 Bft)
18.10.2020 01:45 6,0 C 91 % 1020,7 hPa 0,0 mm W 271 1,6 km/h (1 Bft)
18.10.2020 01:50 6,0 C 91 % 1020,7 hPa 0,0 mm W 271 0,0 km/h (0 Bft)
18.10.2020 01:55 6,1 C 91 % 1020,6 hPa 0,0 mm W 271 0,0 km/h (0 Bft)
18.10.2020 02:00 6,0 C 91 % 1020,6 hPa 0,0 mm W 271 1,6 km/h (1 Bft)
18.10.2020 02:05 6,1 C 91 % 1020,7 hPa 0,0 mm W 271 0,0 km/h (0 Bft)
18.10.2020 02:10 6,1 C 91 % 1020,7 hPa 0,0 mm W 271 1,6 km/h (1 Bft)
18.10.2020 02:15 6,1 C 91 % 1020,8 hPa 0,0 mm W 271 3,2 km/h (1 Bft)
18.10.2020 02:20 6,1 C 91 % 1020,7 hPa 0,0 mm W 271 3,2 km/h (1 Bft)
18.10.2020 02:25 6,1 C 91 % 1020,8 hPa 0,0 mm W 271 1,6 km/h (1 Bft)
18.10.2020 02:30 6,1 C 91 % 1020,8 hPa 0,0 mm W 271 1,6 km/h (1 Bft)
18.10.2020 02:35 6,2 C 91 % 1020,8 hPa 0,0 mm W 271 1,6 km/h (1 Bft)
18.10.2020 02:40 6,2 C 91 % 1020,7 hPa 0,0 mm W 271 3,2 km/h (1 Bft)
18.10.2020 02:45 6,2 C 91 % 1020,8 hPa 0,0 mm W 271 0,0 km/h (0 Bft)
18.10.2020 02:50 6,2 C 91 % 1020,8 hPa 0,0 mm W 271 0,0 km/h (0 Bft)
18.10.2020 02:55 6,2 C 91 % 1020,8 hPa 0,0 mm W 271 1,6 km/h (1 Bft)
18.10.2020 03:00 6,2 C 91 % 1020,9 hPa 0,0 mm W 271 3,2 km/h (1 Bft)
18.10.2020 03:05 6,2 C 91 % 1020,8 hPa 0,0 mm W 271 1,6 km/h (1 Bft)
18.10.2020 03:10 6,2 C 91 % 1020,9 hPa 0,0 mm W 271 1,6 km/h (1 Bft)
18.10.2020 03:15 6,2 C 91 % 1020,8 hPa 0,0 mm W 271 0,0 km/h (0 Bft)
18.10.2020 03:20 6,2 C 91 % 1020,8 hPa 0,0 mm W 271 0,0 km/h (0 Bft)
18.10.2020 03:25 6,3 C 91 % 1020,9 hPa 0,0 mm W 271 3,2 km/h (1 Bft)
18.10.2020 03:30 6,3 C 91 % 1020,8 hPa 0,0 mm W 271 0,0 km/h (0 Bft)
18.10.2020 03:35 6,3 C 91 % 1020,8 hPa 0,0 mm W 271 0,0 km/h (0 Bft)
18.10.2020 03:40 6,3 C 91 % 1020,8 hPa 0,0 mm W 271 0,0 km/h (0 Bft)
18.10.2020 03:45 6,3 C 91 % 1020,8 hPa 0,0 mm W 271 0,0 km/h (0 Bft)
18.10.2020 03:50 6,3 C 91 % 1020,9 hPa 0,0 mm W 271 1,6 km/h (1 Bft)
18.10.2020 03:55 6,3 C 91 % 1020,9 hPa 0,0 mm W 271 0,0 km/h (0 Bft)
18.10.2020 04:00 6,3 C 91 % 1020,9 hPa 0,0 mm W 271 0,0 km/h (0 Bft)
18.10.2020 04:05 6,3 C 91 % 1020,9 hPa 0,0 mm W 271 4,8 km/h (1 Bft)
18.10.2020 04:10 6,4 C 91 % 1020,9 hPa 0,2 mm W 271 4,8 km/h (1 Bft)
18.10.2020 04:15 6,3 C 91 % 1021,0 hPa 0,0 mm W 271 3,2 km/h (1 Bft)
18.10.2020 04:20 6,3 C 91 % 1021,0 hPa 0,0 mm W 271 1,6 km/h (1 Bft)
18.10.2020 04:25 6,3 C 91 % 1021,0 hPa 0,0 mm W 271 1,6 km/h (1 Bft)
18.10.2020 04:30 6,3 C 91 % 1021,0 hPa 0,0 mm W 271 0,0 km/h (0 Bft)
18.10.2020 04:35 6,3 C 91 % 1021,1 hPa 0,0 mm W 271 0,0 km/h (0 Bft)
18.10.2020 04:40 6,3 C 91 % 1021,1 hPa 0,0 mm W 271 0,0 km/h (0 Bft)
18.10.2020 04:45 6,3 C 91 % 1021,1 hPa 0,0 mm W 271 0,0 km/h (0 Bft)
18.10.2020 04:50 6,3 C 91 % 1021,0 hPa 0,0 mm W 271 0,0 km/h (0 Bft)
18.10.2020 04:55 6,3 C 91 % 1021,1 hPa 0,0 mm W 271 0,0 km/h (0 Bft)
18.10.2020 05:00 6,3 C 92 % 1021,1 hPa 0,0 mm W 271 0,0 km/h (0 Bft)
18.10.2020 05:05 6,3 C 92 % 1021,1 hPa 0,0 mm W 271 0,0 km/h (0 Bft)
18.10.2020 05:10 6,3 C 92 % 1021,1 hPa 0,0 mm W 271 0,0 km/h (0 Bft)
18.10.2020 05:15 6,3 C 92 % 1021,2 hPa 0,0 mm W 271 0,0 km/h (0 Bft)
18.10.2020 05:20 6,3 C 92 % 1021,3 hPa 0,0 mm W 271 0,0 km/h (0 Bft)
18.10.2020 05:25 6,3 C 92 % 1021,3 hPa 0,0 mm W 271 0,0 km/h (0 Bft)
18.10.2020 05:30 6,3 C 92 % 1021,2 hPa 0,0 mm W 271 0,0 km/h (0 Bft)
18.10.2020 05:35 6,3 C 92 % 1021,3 hPa 0,0 mm W 271 0,0 km/h (0 Bft)
18.10.2020 05:40 6,3 C 92 % 1021,2 hPa 0,0 mm W 271 0,0 km/h (0 Bft)
18.10.2020 05:45 6,3 C 92 % 1021,2 hPa 0,0 mm W 271 0,0 km/h (0 Bft)
18.10.2020 05:50 6,3 C 92 % 1021,1 hPa 0,0 mm W 271 0,0 km/h (0 Bft)
18.10.2020 05:55 6,3 C 92 % 1021,2 hPa 0,0 mm W 271 0,0 km/h (0 Bft)
18.10.2020 06:00 6,3 C 92 % 1021,2 hPa 0,0 mm W 271 0,0 km/h (0 Bft)
18.10.2020 06:05 6,3 C 92 % 1021,3 hPa 0,0 mm W 271 0,0 km/h (0 Bft)
18.10.2020 06:10 6,3 C 92 % 1021,3 hPa 0,0 mm W 271 0,0 km/h (0 Bft)
18.10.2020 06:15 6,3 C 92 % 1021,3 hPa 0,0 mm W 271 0,0 km/h (0 Bft)
18.10.2020 06:20 6,3 C 92 % 1021,3 hPa 0,0 mm W 271 0,0 km/h (0 Bft)
18.10.2020 06:25 6,3 C 92 % 1021,4 hPa 0,0 mm W 271 0,0 km/h (0 Bft)
18.10.2020 06:30 6,3 C 92 % 1021,3 hPa 0,0 mm W 271 0,0 km/h (0 Bft)
18.10.2020 06:35 6,3 C 92 % 1021,3 hPa 0,0 mm W 271 0,0 km/h (0 Bft)
18.10.2020 06:40 6,3 C 92 % 1021,4 hPa 0,0 mm W 271 0,0 km/h (0 Bft)
18.10.2020 06:45 6,3 C 92 % 1021,4 hPa 0,0 mm W 271 0,0 km/h (0 Bft)
18.10.2020 06:50 6,3 C 92 % 1021,4 hPa 0,0 mm W 271 0,0 km/h (0 Bft)
18.10.2020 06:55 6,3 C 92 % 1021,5 hPa 0,0 mm W 271 0,0 km/h (0 Bft)
18.10.2020 07:00 6,3 C 92 % 1021,5 hPa 0,0 mm W 271 0,0 km/h (0 Bft)
18.10.2020 07:05 6,3 C 92 % 1021,5 hPa 0,0 mm W 271 0,0 km/h (0 Bft)
18.10.2020 07:10 6,3 C 92 % 1021,5 hPa 0,0 mm W 271 0,0 km/h (0 Bft)
18.10.2020 07:15 6,3 C 92 % 1021,5 hPa 0,0 mm W 271 0,0 km/h (0 Bft)
18.10.2020 07:20 6,3 C 92 % 1021,5 hPa 0,0 mm W 271 0,0 km/h (0 Bft)
18.10.2020 07:25 6,3 C 92 % 1021,5 hPa 0,0 mm W 271 0,0 km/h (0 Bft)
18.10.2020 07:30 6,3 C 92 % 1021,5 hPa 0,0 mm W 271 0,0 km/h (0 Bft)
18.10.2020 07:35 6,3 C 92 % 1021,6 hPa 0,0 mm W 271 0,0 km/h (0 Bft)
18.10.2020 07:40 6,3 C 92 % 1021,7 hPa 0,0 mm W 271 1,6 km/h (1 Bft)
18.10.2020 07:45 6,3 C 92 % 1021,8 hPa 0,6 mm W 272 6,4 km/h (2 Bft)
18.10.2020 07:50 6,3 C 92 % 1021,8 hPa 0,6 mm W 272 4,8 km/h (1 Bft)
18.10.2020 07:55 6,3 C 92 % 1021,9 hPa 0,0 mm W 271 6,4 km/h (2 Bft)
18.10.2020 08:00 6,3 C 92 % 1022,0 hPa 0,0 mm W 273 6,4 km/h (2 Bft)
18.10.2020 08:05 6,3 C 92 % 1022,1 hPa 0,0 mm W 273 4,8 km/h (1 Bft)
18.10.2020 08:10 6,3 C 92 % 1022,1 hPa 0,0 mm W 273 3,2 km/h (1 Bft)
18.10.2020 08:15 6,3 C 92 % 1022,2 hPa 0,0 mm W 273 1,6 km/h (1 Bft)
18.10.2020 08:20 6,3 C 92 % 1022,4 hPa 0,0 mm W 273 0,0 km/h (0 Bft)
18.10.2020 08:25 6,3 C 92 % 1022,4 hPa 0,0 mm W 273 1,6 km/h (1 Bft)
18.10.2020 08:30 6,3 C 92 % 1022,5 hPa 0,0 mm W 273 1,6 km/h (1 Bft)
18.10.2020 08:35 6,3 C 92 % 1022,6 hPa 0,2 mm W 273 3,2 km/h (1 Bft)
18.10.2020 08:40 6,3 C 92 % 1022,6 hPa 0,0 mm W 273 3,2 km/h (1 Bft)
18.10.2020 08:45 6,3 C 92 % 1022,6 hPa 0,0 mm W 273 1,6 km/h (1 Bft)
18.10.2020 08:50 6,3 C 92 % 1022,7 hPa 0,0 mm W 273 0,0 km/h (0 Bft)
18.10.2020 08:55 6,3 C 92 % 1022,8 hPa 0,0 mm W 273 0,0 km/h (0 Bft)
18.10.2020 09:00 6,4 C 92 % 1022,8 hPa 0,0 mm W 273 4,8 km/h (1 Bft)
18.10.2020 09:05 6,4 C 92 % 1022,9 hPa 0,0 mm W 273 6,4 km/h (2 Bft)
18.10.2020 09:10 6,5 C 92 % 1023,0 hPa 0,0 mm W 273 4,8 km/h (1 Bft)
18.10.2020 09:15 6,6 C 92 % 1023,1 hPa 0,0 mm W 273 4,8 km/h (1 Bft)
18.10.2020 09:20 6,6 C 92 % 1023,2 hPa 0,0 mm W 273 4,8 km/h (1 Bft)
18.10.2020 09:25 6,7 C 92 % 1023,2 hPa 0,0 mm W 273 6,4 km/h (2 Bft)
18.10.2020 09:30 6,7 C 92 % 1023,2 hPa 0,0 mm W 273 4,8 km/h (1 Bft)
18.10.2020 09:35 6,8 C 92 % 1023,2 hPa 0,0 mm W 273 4,8 km/h (1 Bft)
18.10.2020 09:40 7,1 C 93 % 1023,2 hPa 0,0 mm W 273 4,8 km/h (1 Bft)
18.10.2020 09:45 7,3 C 93 % 1023,2 hPa 0,0 mm W 273 4,8 km/h (1 Bft)
18.10.2020 09:50 7,4 C 92 % 1023,2 hPa 0,0 mm W 273 4,8 km/h (1 Bft)
18.10.2020 09:55 7,7 C 93 % 1023,3 hPa 0,0 mm W 273 4,8 km/h (1 Bft)
18.10.2020 10:00 7,7 C 92 % 1023,3 hPa 0,0 mm W 273 4,8 km/h (1 Bft)
18.10.2020 10:05 7,8 C 92 % 1023,3 hPa 0,0 mm W 273 4,8 km/h (1 Bft)
18.10.2020 10:10 7,7 C 92 % 1023,4 hPa 0,0 mm W 265 9,7 km/h (2 Bft)
18.10.2020 10:15 7,7 C 92 % 1023,4 hPa 0,0 mm W 261 6,4 km/h (2 Bft)
18.10.2020 10:20 7,8 C 92 % 1023,4 hPa 0,0 mm W 266 6,4 km/h (2 Bft)
18.10.2020 10:25 7,8 C 92 % 1023,4 hPa 0,0 mm W 269 6,4 km/h (2 Bft)
18.10.2020 10:30 7,8 C 92 % 1023,5 hPa 0,0 mm W 274 6,4 km/h (2 Bft)
18.10.2020 10:35 7,9 C 92 % 1023,4 hPa 0,0 mm W 275 8,0 km/h (2 Bft)
18.10.2020 10:40 7,8 C 92 % 1023,4 hPa 0,0 mm W 261 11,3 km/h (2 Bft)
18.10.2020 10:45 8,3 C 92 % 1023,4 hPa 0,0 mm W 271 8,0 km/h (2 Bft)
18.10.2020 10:50 8,3 C 91 % 1023,4 hPa 0,0 mm W 269 8,0 km/h (2 Bft)
18.10.2020 10:55 8,6 C 91 % 1023,4 hPa 0,0 mm W 269 11,3 km/h (2 Bft)
18.10.2020 11:00 8,7 C 91 % 1023,4 hPa 0,0 mm W 264 9,7 km/h (2 Bft)
18.10.2020 11:05 9,0 C 91 % 1023,4 hPa 0,0 mm W 269 6,4 km/h (2 Bft)
18.10.2020 11:10 8,9 C 90 % 1023,4 hPa 0,0 mm W-SW 258 9,7 km/h (2 Bft)
18.10.2020 11:15 8,7 C 90 % 1023,4 hPa 0,0 mm W-SW 257 14,5 km/h (3 Bft)
18.10.2020 11:20 8,4 C 89 % 1023,5 hPa 0,0 mm W 263 11,3 km/h (2 Bft)
18.10.2020 11:25 8,3 C 90 % 1023,5 hPa 0,0 mm W-NW 284 11,3 km/h (2 Bft)
18.10.2020 11:30 8,6 C 90 % 1023,4 hPa 0,0 mm W 267 9,7 km/h (2 Bft)
18.10.2020 11:35 8,6 C 89 % 1023,4 hPa 0,0 mm W 275 8,0 km/h (2 Bft)
18.10.2020 11:40 8,7 C 89 % 1023,4 hPa 0,0 mm W 265 8,0 km/h (2 Bft)
18.10.2020 11:45 8,7 C 89 % 1023,4 hPa 0,0 mm W 271 6,4 km/h (2 Bft)
18.10.2020 11:50 8,7 C 89 % 1023,4 hPa 0,0 mm W 277 9,7 km/h (2 Bft)
18.10.2020 11:55 9,2 C 89 % 1023,4 hPa 0,0 mm W 276 9,7 km/h (2 Bft)
18.10.2020 12:00 9,2 C 87 % 1023,4 hPa 0,0 mm W 265 12,9 km/h (3 Bft)
18.10.2020 12:05 9,8 C 88 % 1023,4 hPa 0,0 mm W 278 12,9 km/h (3 Bft)
18.10.2020 12:10 10,8 C 85 % 1023,3 hPa 0,0 mm W 265 8,0 km/h (2 Bft)
18.10.2020 12:15 11,5 C 85 % 1023,3 hPa 0,0 mm W-NW 282 12,9 km/h (3 Bft)
18.10.2020 12:20 12,0 C 84 % 1023,3 hPa 0,0 mm W-SW 255 11,3 km/h (2 Bft)
18.10.2020 12:25 11,8 C 80 % 1023,2 hPa 0,0 mm W-NW 289 14,5 km/h (3 Bft)
18.10.2020 12:30 11,0 C 78 % 1023,2 hPa 0,0 mm W 261 14,5 km/h (3 Bft)
18.10.2020 12:35 10,5 C 80 % 1023,2 hPa 0,0 mm W 272 12,9 km/h (3 Bft)
18.10.2020 12:40 10,3 C 81 % 1023,2 hPa 0,0 mm W-SW 257 11,3 km/h (2 Bft)
18.10.2020 12:45 10,0 C 82 % 1023,2 hPa 0,0 mm W-NW 292 9,7 km/h (2 Bft)
18.10.2020 12:50 9,8 C 81 % 1023,1 hPa 0,0 mm W 269 8,0 km/h (2 Bft)
18.10.2020 12:55 9,9 C 83 % 1023,2 hPa 0,0 mm W 269 4,8 km/h (1 Bft)
18.10.2020 13:00 9,8 C 83 % 1023,1 hPa 0,0 mm W 271 8,0 km/h (2 Bft)
18.10.2020 13:05 9,7 C 84 % 1023,1 hPa 0,0 mm W 264 6,4 km/h (2 Bft)
18.10.2020 13:10 9,7 C 84 % 1023,1 hPa 0,0 mm W 259 8,0 km/h (2 Bft)
18.10.2020 13:15 10,2 C 84 % 1023,0 hPa 0,0 mm NW 311 8,0 km/h (2 Bft)
18.10.2020 13:20 10,5 C 84 % 1023,0 hPa 0,0 mm W-SW 242 6,4 km/h (2 Bft)
18.10.2020 13:25 10,6 C 81 % 1023,0 hPa 0,0 mm W-SW 240 6,4 km/h (2 Bft)
18.10.2020 13:30 10,6 C 81 % 1022,8 hPa 0,0 mm W 267 8,0 km/h (2 Bft)
18.10.2020 13:35 10,4 C 81 % 1022,8 hPa 0,0 mm W 259 8,0 km/h (2 Bft)
18.10.2020 13:40 10,2 C 80 % 1022,8 hPa 0,0 mm W 269 9,7 km/h (2 Bft)
18.10.2020 13:45 9,9 C 81 % 1022,8 hPa 0,0 mm W 274 8,0 km/h (2 Bft)
18.10.2020 13:50 9,9 C 81 % 1022,7 hPa 0,0 mm W 264 9,7 km/h (2 Bft)
18.10.2020 13:55 9,7 C 81 % 1022,7 hPa 0,0 mm W-SW 255 11,3 km/h (2 Bft)
18.10.2020 14:00 9,6 C 82 % 1022,7 hPa 0,0 mm W-SW 257 8,0 km/h (2 Bft)
18.10.2020 14:05 9,6 C 83 % 1022,7 hPa 0,0 mm W-SW 258 8,0 km/h (2 Bft)
18.10.2020 14:10 9,6 C 84 % 1022,7 hPa 0,0 mm W-SW 258 4,8 km/h (1 Bft)
18.10.2020 14:15 9,7 C 84 % 1022,7 hPa 0,0 mm W-SW 258 3,2 km/h (1 Bft)
18.10.2020 14:20 9,7 C 84 % 1022,6 hPa 0,0 mm W-SW 258 4,8 km/h (1 Bft)
18.10.2020 14:25 9,7 C 83 % 1022,6 hPa 0,0 mm W-SW 258 3,2 km/h (1 Bft)
18.10.2020 14:30 9,7 C 83 % 1022,7 hPa 0,0 mm W 271 8,0 km/h (2 Bft)
18.10.2020 14:35 9,7 C 83 % 1022,6 hPa 0,0 mm W 271 4,8 km/h (1 Bft)
18.10.2020 14:40 9,7 C 83 % 1022,6 hPa 0,0 mm W 271 4,8 km/h (1 Bft)
18.10.2020 14:45 9,7 C 83 % 1022,5 hPa 0,0 mm W 271 6,4 km/h (2 Bft)
18.10.2020 14:50 9,8 C 84 % 1022,5 hPa 0,0 mm W 271 3,2 km/h (1 Bft)
18.10.2020 14:55 9,8 C 83 % 1022,5 hPa 0,0 mm W 269 8,0 km/h (2 Bft)
18.10.2020 15:00 9,7 C 82 % 1022,4 hPa 0,0 mm W-SW 254 8,0 km/h (2 Bft)
18.10.2020 15:05 9,6 C 82 % 1022,4 hPa 0,0 mm W 274 6,4 km/h (2 Bft)
18.10.2020 15:10 9,7 C 82 % 1022,5 hPa 0,0 mm W 273 6,4 km/h (2 Bft)
18.10.2020 15:15 9,8 C 82 % 1022,5 hPa 0,0 mm W-SW 258 11,3 km/h (2 Bft)
18.10.2020 15:20 9,9 C 81 % 1022,4 hPa 0,0 mm W 277 9,7 km/h (2 Bft)
18.10.2020 15:25 9,8 C 80 % 1022,4 hPa 0,0 mm W 276 9,7 km/h (2 Bft)
18.10.2020 15:30 9,8 C 80 % 1022,4 hPa 0,0 mm W 274 9,7 km/h (2 Bft)
18.10.2020 15:35 9,8 C 80 % 1022,4 hPa 0,0 mm W 264 8,0 km/h (2 Bft)
18.10.2020 15:40 9,8 C 80 % 1022,4 hPa 0,0 mm W 265 8,0 km/h (2 Bft)
18.10.2020 15:45 9,9 C 80 % 1022,4 hPa 0,0 mm W 265 4,8 km/h (1 Bft)
18.10.2020 15:50 10,1 C 81 % 1022,4 hPa 0,0 mm W 265 4,8 km/h (1 Bft)
18.10.2020 15:55 10,1 C 80 % 1022,5 hPa 0,0 mm W 260 8,0 km/h (2 Bft)
18.10.2020 16:00 9,9 C 80 % 1022,6 hPa 0,0 mm W-NW 302 4,8 km/h (1 Bft)
18.10.2020 16:05 9,8 C 81 % 1022,6 hPa 0,0 mm W-NW 284 8,0 km/h (2 Bft)
18.10.2020 16:10 9,7 C 81 % 1022,6 hPa 0,0 mm W 269 8,0 km/h (2 Bft)
18.10.2020 16:15 9,8 C 81 % 1022,7 hPa 0,0 mm W 269 4,8 km/h (1 Bft)
18.10.2020 16:20 9,8 C 81 % 1022,6 hPa 0,0 mm W 269 4,8 km/h (1 Bft)
18.10.2020 16:25 9,8 C 81 % 1022,6 hPa 0,0 mm W 269 4,8 km/h (1 Bft)
18.10.2020 16:30 9,8 C 81 % 1022,6 hPa 0,0 mm W 269 4,8 km/h (1 Bft)
18.10.2020 16:35 9,7 C 81 % 1022,7 hPa 0,0 mm W 269 4,8 km/h (1 Bft)
18.10.2020 16:40 9,7 C 82 % 1022,7 hPa 0,0 mm W 269 3,2 km/h (1 Bft)
18.10.2020 16:45 9,7 C 82 % 1022,7 hPa 0,0 mm W 269 4,8 km/h (1 Bft)
18.10.2020 16:50 9,7 C 82 % 1022,7 hPa 0,0 mm W 269 4,8 km/h (1 Bft)
18.10.2020 16:55 9,7 C 82 % 1022,7 hPa 0,0 mm W 269 1,6 km/h (1 Bft)
18.10.2020 17:00 9,7 C 82 % 1022,7 hPa 0,0 mm W 269 3,2 km/h (1 Bft)
18.10.2020 17:05 9,6 C 82 % 1022,8 hPa 0,0 mm W 269 4,8 km/h (1 Bft)
18.10.2020 17:10 9,6 C 82 % 1022,8 hPa 0,0 mm W 269 6,4 km/h (2 Bft)
18.10.2020 17:15 9,4 C 82 % 1022,8 hPa 0,0 mm O-SO 114 6,4 km/h (2 Bft)
18.10.2020 17:20 9,3 C 82 % 1022,7 hPa 0,0 mm O-SO 114 6,4 km/h (2 Bft)
18.10.2020 17:25 9,2 C 83 % 1022,7 hPa 0,0 mm O-SO 113 6,4 km/h (2 Bft)
18.10.2020 17:30 9,1 C 83 % 1022,7 hPa 0,0 mm O-SO 113 3,2 km/h (1 Bft)
18.10.2020 17:35 9,0 C 83 % 1022,7 hPa 0,0 mm O-SO 113 4,8 km/h (1 Bft)
18.10.2020 17:40 8,9 C 83 % 1022,8 hPa 0,0 mm O-SO 113 0,0 km/h (0 Bft)
18.10.2020 17:45 8,8 C 83 % 1022,7 hPa 0,0 mm O-SO 113 0,0 km/h (0 Bft)
18.10.2020 17:50 8,7 C 83 % 1022,7 hPa 0,0 mm O-SO 113 0,0 km/h (0 Bft)
18.10.2020 17:55 8,7 C 83 % 1022,7 hPa 0,0 mm O-SO 113 0,0 km/h (0 Bft)
18.10.2020 18:00 8,6 C 83 % 1022,7 hPa 0,0 mm O-SO 113 0,0 km/h (0 Bft)
18.10.2020 18:05 8,5 C 84 % 1022,8 hPa 0,0 mm O-SO 113 0,0 km/h (0 Bft)
18.10.2020 18:10 8,4 C 84 % 1022,8 hPa 0,0 mm O-SO 113 0,0 km/h (0 Bft)
18.10.2020 18:15 8,3 C 83 % 1022,9 hPa 0,0 mm O-SO 113 0,0 km/h (0 Bft)
18.10.2020 18:20 8,2 C 84 % 1022,9 hPa 0,0 mm O-SO 113 0,0 km/h (0 Bft)
18.10.2020 18:25 8,2 C 84 % 1023,0 hPa 0,0 mm O-SO 113 0,0 km/h (0 Bft)
18.10.2020 18:30 8,1 C 84 % 1023,0 hPa 0,0 mm O-SO 113 0,0 km/h (0 Bft)
18.10.2020 18:35 8,0 C 84 % 1023,1 hPa 0,0 mm O-SO 113 0,0 km/h (0 Bft)
18.10.2020 18:40 7,9 C 84 % 1023,1 hPa 0,0 mm O-SO 113 1,6 km/h (1 Bft)
18.10.2020 18:45 7,8 C 84 % 1023,1 hPa 0,0 mm O-SO 113 0,0 km/h (0 Bft)
18.10.2020 18:50 7,7 C 84 % 1023,3 hPa 0,0 mm O-SO 113 0,0 km/h (0 Bft)
18.10.2020 18:55 7,7 C 84 % 1023,3 hPa 0,0 mm O-SO 113 0,0 km/h (0 Bft)
18.10.2020 19:00 7,6 C 85 % 1023,3 hPa 0,0 mm O-SO 113 0,0 km/h (0 Bft)
18.10.2020 19:05 7,5 C 85 % 1023,3 hPa 0,0 mm O-SO 113 0,0 km/h (0 Bft)
18.10.2020 19:10 7,4 C 85 % 1023,4 hPa 0,0 mm O-SO 113 0,0 km/h (0 Bft)
18.10.2020 19:15 7,3 C 85 % 1023,4 hPa 0,0 mm O-SO 113 0,0 km/h (0 Bft)
18.10.2020 19:20 7,2 C 85 % 1023,5 hPa 0,0 mm O-SO 113 0,0 km/h (0 Bft)
18.10.2020 19:25 7,1 C 85 % 1023,5 hPa 0,0 mm O-SO 113 0,0 km/h (0 Bft)
18.10.2020 19:30 7,0 C 85 % 1023,6 hPa 0,0 mm O-SO 113 0,0 km/h (0 Bft)
18.10.2020 19:35 6,9 C 85 % 1023,7 hPa 0,0 mm O-SO 113 0,0 km/h (0 Bft)
18.10.2020 19:40 6,8 C 85 % 1023,7 hPa 0,0 mm O-SO 113 0,0 km/h (0 Bft)
18.10.2020 19:45 6,7 C 85 % 1023,7 hPa 0,0 mm O-SO 113 1,6 km/h (1 Bft)
18.10.2020 19:50 6,6 C 85 % 1023,8 hPa 0,0 mm O-SO 113 1,6 km/h (1 Bft)
18.10.2020 19:55 6,6 C 85 % 1023,8 hPa 0,0 mm O-SO 113 1,6 km/h (1 Bft)
18.10.2020 20:00 6,4 C 85 % 1023,8 hPa 0,0 mm O-SO 113 0,0 km/h (0 Bft)
18.10.2020 20:05 6,4 C 85 % 1023,8 hPa 0,0 mm O-SO 113 1,6 km/h (1 Bft)
18.10.2020 20:10 6,3 C 86 % 1023,8 hPa 0,0 mm O-SO 113 1,6 km/h (1 Bft)
18.10.2020 20:15 6,2 C 86 % 1023,8 hPa 0,0 mm O-SO 113 0,0 km/h (0 Bft)
18.10.2020 20:20 6,2 C 86 % 1023,8 hPa 0,0 mm O-SO 113 0,0 km/h (0 Bft)
18.10.2020 20:25 6,1 C 86 % 1023,9 hPa 0,0 mm O-SO 113 1,6 km/h (1 Bft)
18.10.2020 20:30 6,0 C 86 % 1023,9 hPa 0,0 mm O-SO 113 1,6 km/h (1 Bft)
18.10.2020 20:35 5,9 C 86 % 1023,9 hPa 0,0 mm O-SO 113 1,6 km/h (1 Bft)
18.10.2020 20:40 5,9 C 86 % 1023,9 hPa 0,0 mm O-SO 113 3,2 km/h (1 Bft)
18.10.2020 20:45 5,9 C 86 % 1023,9 hPa 0,0 mm O-SO 113 3,2 km/h (1 Bft)
18.10.2020 20:50 5,9 C 86 % 1023,9 hPa 0,0 mm O-SO 113 1,6 km/h (1 Bft)
18.10.2020 20:55 5,9 C 87 % 1024,0 hPa 0,0 mm O-SO 113 3,2 km/h (1 Bft)
18.10.2020 21:00 5,8 C 87 % 1023,9 hPa 0,0 mm O-SO 113 3,2 km/h (1 Bft)
18.10.2020 21:05 5,8 C 87 % 1024,0 hPa 0,0 mm O-SO 113 0,0 km/h (0 Bft)
18.10.2020 21:10 5,8 C 87 % 1024,1 hPa 0,0 mm O-SO 113 0,0 km/h (0 Bft)
18.10.2020 21:15 5,8 C 87 % 1024,1 hPa 0,0 mm O-SO 113 3,2 km/h (1 Bft)
18.10.2020 21:20 5,8 C 87 % 1024,1 hPa 0,0 mm O-SO 113 0,0 km/h (0 Bft)
18.10.2020 21:25 5,8 C 87 % 1024,2 hPa 0,0 mm O-SO 113 0,0 km/h (0 Bft)
18.10.2020 21:30 5,8 C 87 % 1024,2 hPa 0,0 mm O-SO 113 1,6 km/h (1 Bft)
18.10.2020 21:35 5,8 C 87 % 1024,3 hPa 0,0 mm O-SO 113 0,0 km/h (0 Bft)
18.10.2020 21:40 5,8 C 88 % 1024,3 hPa 0,0 mm O-SO 113 0,0 km/h (0 Bft)
18.10.2020 21:45 5,8 C 88 % 1024,2 hPa 0,0 mm O-SO 113 0,0 km/h (0 Bft)
18.10.2020 21:50 5,8 C 88 % 1024,2 hPa 0,0 mm O-SO 113 0,0 km/h (0 Bft)
18.10.2020 21:55 5,8 C 88 % 1024,3 hPa 0,0 mm O-SO 113 0,0 km/h (0 Bft)
18.10.2020 22:00 5,8 C 88 % 1024,3 hPa 0,0 mm O-SO 113 0,0 km/h (0 Bft)
18.10.2020 22:05 5,9 C 88 % 1024,3 hPa 0,0 mm O-SO 113 3,2 km/h (1 Bft)
18.10.2020 22:10 5,9 C 88 % 1024,3 hPa 0,0 mm O-SO 113 0,0 km/h (0 Bft)
18.10.2020 22:15 5,9 C 88 % 1024,3 hPa 0,0 mm O-SO 113 0,0 km/h (0 Bft)
18.10.2020 22:20 5,9 C 88 % 1024,4 hPa 0,0 mm O-SO 113 3,2 km/h (1 Bft)
18.10.2020 22:25 5,9 C 88 % 1024,4 hPa 0,0 mm O-SO 113 0,0 km/h (0 Bft)
18.10.2020 22:30 5,9 C 88 % 1024,5 hPa 0,0 mm O-SO 113 0,0 km/h (0 Bft)
18.10.2020 22:35 5,9 C 88 % 1024,4 hPa 0,0 mm O-SO 113 0,0 km/h (0 Bft)
18.10.2020 22:40 5,9 C 88 % 1024,5 hPa 0,0 mm O-SO 113 0,0 km/h (0 Bft)
18.10.2020 22:45 5,9 C 88 % 1024,4 hPa 0,0 mm O-SO 113 0,0 km/h (0 Bft)
18.10.2020 22:50 5,9 C 88 % 1024,4 hPa 0,0 mm O-SO 113 0,0 km/h (0 Bft)
18.10.2020 22:55 5,9 C 89 % 1024,4 hPa 0,0 mm O-SO 113 0,0 km/h (0 Bft)
18.10.2020 23:00 5,9 C 89 % 1024,4 hPa 0,0 mm O-SO 113 0,0 km/h (0 Bft)
18.10.2020 23:05 5,9 C 89 % 1024,4 hPa 0,0 mm O-SO 113 0,0 km/h (0 Bft)
18.10.2020 23:10 5,9 C 89 % 1024,4 hPa 0,0 mm O-SO 113 1,6 km/h (1 Bft)
18.10.2020 23:15 5,9 C 89 % 1024,5 hPa 0,0 mm O-SO 113 0,0 km/h (0 Bft)
18.10.2020 23:20 5,9 C 89 % 1024,4 hPa 0,0 mm O-SO 113 0,0 km/h (0 Bft)
18.10.2020 23:25 5,9 C 89 % 1024,4 hPa 0,0 mm O-SO 113 1,6 km/h (1 Bft)
18.10.2020 23:30 5,9 C 89 % 1024,5 hPa 0,0 mm O-SO 113 1,6 km/h (1 Bft)
18.10.2020 23:35 5,9 C 89 % 1024,5 hPa 0,0 mm O-SO 113 1,6 km/h (1 Bft)
18.10.2020 23:40 5,9 C 89 % 1024,5 hPa 0,0 mm O-SO 113 0,0 km/h (0 Bft)
18.10.2020 23:45 5,9 C 89 % 1024,5 hPa 0,0 mm O-SO 113 0,0 km/h (0 Bft)
18.10.2020 23:50 5,9 C 89 % 1024,6 hPa 0,0 mm O-SO 113 1,6 km/h (1 Bft)
18.10.2020 23:55 5,9 C 89 % 1024,6 hPa 0,0 mm O-SO 113 1,6 km/h (1 Bft)
_ Min-Zeit 21:00 12:30 00:00 - - - 00:00
Minimum _ 5,8 C 78 % 1020,3 hPa - - - 0,0 km/h (0 Bft)
_ Max-Zeit 12:25 09:40 23:50 07:45 - - 11:15
Maximum _ 12,1 C 93 % 1024,6 hPa 0,6 mm - - 14,5 km/h
W-NW (3 Bft)
Durchschnitt _ 7,4 C 88 % 1022,5 hPa #1,6 mm W - 3,2 km/h (1 Bft)